Challenges Province de Liège / L'Avenir

Wéginight et Wégitrail à Soumagne (17.00 km)

vendredi 08 juin 2018

Vous pouvez trouver Le classement original sur : www.otopservices.be  
CHALLENGES DE LA PROVINCE DE LIEGE & AVENIR VERVIERS
WEGINIGHT ET WÉGITRAIL - SOUMAGNE-WEGIMONT
DISTANCE : 17.00 km
vendredi 08 juin 2018
 
Place dos NOM Catégorie Pl/cat temps temps/km Vitesse
01:00:00              
1 1893 LUC MICHEL VETERAN 1 1 01:11:02 04:11 14.36
2 1897 XAVIER WIERTZ SENIOR H 1 01:12:07 04:15 14.14
3 1779 RIK DECKX SENIOR H 2 01:13:18 04:19 13.92
4 1513 MANU ORDONEZ SENIOR H 3 01:15:25 04:26 13.52
5 1878 FILIP CLAES VETERAN 1 2 01:15:27 04:26 13.52
6 1868 FABRICE SAENEN VETERAN 1 3 01:16:34 04:30 13.32
7 1879 HANNES MERTENS SENIOR H 4 01:16:46 04:31 13.29
8 1962 GILLES POYSAT SENIOR H 5 01:18:59 04:39 12.91
9 1508 MIKAIL DEMIRKAZAN SENIOR H 6 01:19:56 04:42 12.76
10 1966 GAETAN HOGGE SENIOR H 7 01:20:26 04:44 12.68
11 1793 ALEXANDRE FREGONA SENIOR H 8 01:20:28 04:44 12.68
12 1919 VINCENT LEMARCHAL SENIOR H 9 01:21:07 04:46 12.57
13 1996 RENAUD TELLER SENIOR H 10 01:21:11 04:47 12.56
14 1958 MAXIME FELLER SENIOR H 11 01:22:31 04:51 12.36
15 1775 GUILLAUME HENRARD SENIOR H 12 01:22:37 04:52 12.35
16 1540 REGIS BADER SENIOR H 13 01:22:47 04:52 12.32
17 1935 RENAUD GODEFROID SENIOR H 14 01:23:29 04:55 12.22
18 1902 GAETAN DEJALLE SENIOR H 15 01:23:33 04:55 12.21
19 1880 SEBASTIEN NYSSEN VETERAN 1 4 01:23:35 04:55 12.20
20 1969 ANTHONY GROSJEAN SENIOR H 16 01:24:44 04:59 12.04
21 1968 NICOLAS HECK SENIOR H 17 01:25:24 05:01 11.94
22 1543 SIMON THINES SENIOR H 18 01:26:05 05:04 11.85
23 1763 WILCO GOORTS SENIOR H 19 01:26:27 05:05 11.80
24 1892 STEPHANE PIQUERAY VÉTÉRAN 2 1 01:26:59 05:07 11.73
25 1770 CHRISTOPHE DEBATY VETERAN 1 5 01:27:03 05:07 11.72
26 1922 BERTRAND GEROMBOUX SENIOR H 20 01:27:11 05:08 11.70
27 1993 BENOIT PIRONT SENIOR H 21 01:27:35 05:09 11.65
28 1850 MICHEL SIEBENBOUR VÉTÉRAN 2 2 01:27:54 05:10 11.60
29 1921 OLIVIER JACQUEMIN VETERAN 1 6 01:28:24 05:12 11.54
30 1803 STÉPHANIE ORTMANS AINÉE 1 1 01:28:56 05:14 11.47
31 1800 JACQUES DELFOSSE VETERAN 1 7 01:29:17 05:15 11.42
32 1864 MICHEL JEWASINSKI VETERAN 1 8 01:29:18 05:15 11.42
33 1858 JOSEPH STEINER SENIOR H 22 01:29:21 05:15 11.42
34 1797 DAVID VROOMEN VETERAN 1 9 01:30:10 05:18 11.31
35 1799 RAPHAEL SCHMITS VETERAN 1 10 01:30:10 05:18 11.31
36 1959 FRED DEJARDIN VETERAN 1 11 01:31:40 05:24 11.13
37 1955 THOM PETIT SENIOR H 23 01:31:46 05:24 11.12
38 1511 CHRISTOPHE HEYNS VETERAN 1 12 01:32:02 05:25 11.08
39 1992 JULIEN PAPART SENIOR H 24 01:33:01 05:28 10.97
40 1820 DIDIER REGNIER VÉTÉRAN 2 3 01:33:03 05:28 10.96
41 1933 ALEXANDRE DESIRANT SENIOR H 25 01:33:06 05:29 10.96
42 1990 DIMITRI FREGONA SENIOR H 26 01:33:08 05:29 10.95
43 1546 PIERRE-YVES ADANT SENIOR H 27 01:33:13 05:29 10.94
44 1967 VINCENT GENREITH VETERAN 1 13 01:33:14 05:29 10.94
45 1835 FABIAN NICOLAI SENIOR H 28 01:33:37 05:30 10.90
46 1836 FREDERIC LAMBOT SENIOR H 29 01:33:38 05:30 10.89
47 1910 DANIELLE FROIDMONT AINÉE 2 1 01:33:50 05:31 10.87
48 1908 GHISLAIN LEGROS VETERAN 1 14 01:33:50 05:31 10.87
49 1938 CHARLES ETIENNE GOEDERS VETERAN 1 15 01:33:59 05:32 10.85
50 1542 VORG SIMONS VETERAN 1 16 01:34:14 05:33 10.82
51 1528 FREDERIC HEINS SENIOR H 30 01:34:18 05:33 10.82
52 1839 DANIEL ZANETTI VETERAN 1 17 01:34:34 05:34 10.79
53 1764 MARC GOMBOSO VETERAN 3 1 01:34:35 05:34 10.78
54 1998 MICHAEL FLAMAND SENIOR H 31 01:34:36 05:34 10.78
55 1866 VINCENT DOSSERAY SENIOR H 32 01:34:43 05:34 10.77
56 1816 NICOLAS MICHEL VETERAN 1 18 01:35:20 05:36 10.70
57 1934 GILLES LONGTON SENIOR H 33 01:35:34 05:37 10.67
58 1932 MANU HAVET VETERAN 1 19 01:35:52 05:38 10.64
59 1931 NOEMIE HAVET SENIOR D 1 01:35:53 05:38 10.64
60 1888 BERNARD BASTIN VÉTÉRAN 2 4 01:36:07 05:39 10.61
61 1983 FRANCOIS ILLISIBLE SENIOR H 34 01:36:11 05:39 10.60
62 1903 GEOFFRAY KEHL VETERAN 1 20 01:36:43 05:41 10.55
63 1984 CYRIL SANGIOVANNI SENIOR H 35 01:36:44 05:41 10.54
64 1782 MAXIME BIHET SENIOR H 36 01:37:42 05:45 10.44
65 1843 CYRILLE STASSEN SENIOR H 37 01:38:03 05:46 10.40
66 1856 GILLES XHAFLAIRE SENIOR H 38 01:38:03 05:46 10.40
67 1761 FRANCIS WATAR VETERAN 1 21 01:38:28 05:48 10.36
68 1535 BRUNO BALTHASAR SENIOR H 39 01:38:29 05:48 10.36
69 1905 GREGORY HEINRICHS SENIOR H 40 01:38:45 05:49 10.33
70 1765 STEFAN VERBEEK SENIOR H 41 01:39:07 05:50 10.29
71 1937 STEVEN VAASSEN SENIOR H 42 01:39:36 05:52 10.24
72 1930 CINDY RUTH AINÉE 1 2 01:39:45 05:52 10.23
73 1918 CATHERINE WOUTERS AINÉE 2 2 01:40:11 05:54 10.18
74 1852 ARNAUD VANHERF VETERAN 1 22 01:40:13 05:54 10.18
75 1881 MARTIN SLUYSMANS VÉTÉRAN 2 5 01:40:14 05:54 10.18
76 1788 SERGE DESMIT VETERAN 1 23 01:40:18 05:54 10.17
77 1789 ROLAND SCHMETZ VETERAN 1 24 01:41:00 05:56 10.10
78 1927 JONATHAN DODEMONT SENIOR H 43 01:41:10 05:57 10.08
79 1503 LAURENT MATHIAS VETERAN 1 25 01:41:22 05:58 10.06
80 1796 JEAN-FRANCOIS JENNES SENIOR H 44 01:41:29 05:58 10.05
81 1941 FRANCOIS JOIRISSE SENIOR H 45 01:41:45 05:59 10.02
82 1939 MARTINE DURU AINÉE 1 3 01:42:34 06:02 9.94
83 1818 JEAN-SÉBASTIEN HENNIQUIAU SENIOR H 46 01:42:40 06:02 9.94
84 1988 ROMAIN SCHYNS SENIOR H 47 01:42:44 06:03 9.93
85 1784 MATHIEU CZAJKOWSKI SENIOR H 48 01:43:26 06:05 9.86
86 1778 MARIE DETROZ SENIOR D 2 01:43:26 06:05 9.86
87 1865 CINDY LOUVIAUX AINÉE 1 4 01:43:42 06:06 9.84
88 1911 DIMA SUM SENIOR H 49 01:43:48 06:06 9.83
89 1845 THOMAS WEICKMANS SENIOR H 50 01:43:50 06:06 9.82
90 1907 NATHALIE OFFERMANN AINÉE 1 5 01:44:05 06:07 9.80
91 1523 FREDERIC LEGROS VETERAN 1 26 01:44:27 06:09 9.77
92 1819 PASCAL DEWALLEF VETERAN 1 27 01:44:27 06:09 9.77
93 1999 JULIE DEBATY AINÉE 1 6 01:45:23 06:12 9.68
94 1846 FABRICE DIET VETERAN 1 28 01:45:37 06:13 9.66
95 1970 MARC PETRIAUX VETERAN 1 29 01:45:38 06:13 9.66
96 1940 JOHAN EVRARD SENIOR H 51 01:45:59 06:14 9.62
97 1929 DOMINIQUE DINON AINÉE 3 1 01:46:37 06:16 9.57
98 1822 SÉBASTIEN SAMMI VETERAN 1 30 01:46:40 06:16 9.56
99 1981 PIERRE-YVES URLINGS SENIOR H 52 01:46:52 06:17 9.54
100 1520 BENOIT GOHY SENIOR H 53 01:46:52 06:17 9.54
101 1807 XAVIER GUEBEN VETERAN 1 31 01:46:53 06:17 9.54
102 1769 GREGORY BOURGARD SENIOR H 54 01:47:08 06:18 9.52
103 1531 ARNANDO CIMINO VETERAN 1 32 01:47:31 06:19 9.49
104 1986 OLIVIER DEFOURNY SENIOR H 55 01:47:41 06:20 9.47
105 1891 MAGALI MONTE AINÉE 1 7 01:47:44 06:20 9.47
106 1914 GEOFFREY DELINCE SENIOR H 56 01:47:46 06:20 9.46
107 2000 GUILLAUME LEMAIRE SENIOR H 57 01:48:01 06:21 9.44
108 1982 JOSEPH KEYGENER VETERAN 1 33 01:48:11 06:22 9.43
109 1974 CLAUDE MEYS VÉTÉRAN 2 6 01:48:25 06:23 9.41
110 1524 ARNAUD GUCKEL SENIOR H 58 01:48:30 06:23 9.40
111 1870 GIOACHINO LACOLA VÉTÉRAN 2 7 01:48:41 06:24 9.39
112 1997 LIONEL VAN BOECKEL SENIOR H 59 01:48:42 06:24 9.38
113 1783 LUC CRANINX VÉTÉRAN 2 8 01:48:48 06:24 9.38
114 1802 SYLVAIN VANDEVEN VETERAN 1 34 01:48:50 06:24 9.37
115 1960 STEPHANE VANLANGENAKKER VETERAN 1 35 01:48:50 06:24 9.37
116 1926 PIERRE BOUCHE SENIOR H 60 01:49:21 06:26 9.33
117 1882 CHRISTIAN JASPAR VETERAN 3 2 01:49:21 06:26 9.33
118 1814 ALAIN THIELEN VÉTÉRAN 2 9 01:49:22 06:26 9.33
119 1541 OLIVIER RENAUD VETERAN 1 36 01:49:28 06:26 9.32
120 1758 LOICO CALIZ ROMERO SENIOR H 61 01:50:11 06:29 9.26
121 1979 XAVIER THOMAS VETERAN 1 37 01:50:25 06:30 9.24
122 1917 MICKAEL MOREAU SENIOR H 62 01:50:31 06:30 9.23
123 1768 SYLVAIN COBBEN SENIOR H 63 01:50:33 06:30 9.23
124 1953 CARINE ISERENTANT AINÉE 2 3 01:50:35 06:30 9.22
125 1987 JULIEN DERECOGNE SENIOR H 64 01:50:58 06:32 9.19
126 1777 FRANÇOIS WEGRIA VETERAN 1 38 01:51:07 06:32 9.18
127 1514 RAPHAEL RENNOTTE VETERAN 1 39 01:52:02 06:35 9.10
128 1972 JEREMY HAGELSTEIN SENIOR H 65 01:52:13 06:36 9.09
129 1867 LUC DELHAES VETERAN 1 40 01:52:18 06:36 9.08
130 1985 ALIZEE BALAZUN SENIOR D 3 01:52:23 06:37 9.08
131 1899 FABRICE DARTOIS VETERAN 1 41 01:52:44 06:38 9.05
132 1872 BRUNO BEYER VÉTÉRAN 2 10 01:52:44 06:38 9.05
133 1871 FRANCINE FONTAINE AINÉE 3 2 01:52:44 06:38 9.05
134 1952 JEAN CHRISTOPHE ILLISIBLE VETERAN 1 42 01:52:49 06:38 9.04
135 1823 JULIE SARLET SENIOR D 4 01:53:08 06:39 9.02
136 1502 ARNAUD SCHNAKERS SENIOR H 66 01:53:08 06:39 9.02
137 1884 KATRIEN VAN GESTEL SENIOR D 5 01:53:23 06:40 9.00
138 1830 HENRY-MARC JUNKER VETERAN 3 3 01:53:39 06:41 8.97
139 1510 CHRISTINE MONSEZ AINÉE 1 8 01:53:42 06:41 8.97
140 1537 CALOGERO LIOTA SENIOR H 67 01:53:43 06:41 8.97
141 1991 ROMUALD TAVOLIERI VETERAN 1 43 01:53:50 06:42 8.96
142 1824 DAMIEN GUILLAUME SENIOR H 68 01:53:54 06:42 8.96
143 1760 THOMAS OTTE SENIOR H 69 01:54:00 06:42 8.95
144 1951 FRANCOIS ROCKS SENIOR H 70 01:54:07 06:43 8.94
145 1809 LAURENCE TENEY SENIOR D 6 01:54:24 06:44 8.92
146 1898 LAURENCE BONHEMME AINÉE 2 4 01:54:29 06:44 8.91
147 1815 NATHALIE THIRION AINÉE 2 5 01:54:29 06:44 8.91
148 1840 RACHEL DEMONCEAU AINÉE 1 9 01:54:36 06:44 8.90
149 1519 MARGAUX LEPORCK SENIOR D 7 01:54:52 06:45 8.88
150 1862 M'BAREK OUADNOUNI VÉTÉRAN 2 11 01:55:27 06:47 8.83
151 1920 JEROME BERODE VETERAN 1 44 01:55:28 06:48 8.83
152 1961 XAVIER MARCHAL VÉTÉRAN 2 12 01:55:28 06:48 8.83
153 1795 HUGO RADDOUX VETERAN 3 4 01:55:28 06:48 8.83
154 1786 JÉRÔME BERTHOD VETERAN 1 45 01:55:44 06:48 8.81
155 1957 PHILIPPE BANASZAK SENIOR H 71 01:55:49 06:49 8.81
156 1527 MIRKO RUGGIERI VETERAN 1 46 01:56:02 06:50 8.79
157 1526 FELICE DIGERONIMO VETERAN 1 47 01:56:03 06:50 8.79
158 1928 JULIEN DIET SENIOR H 72 01:56:15 06:50 8.77
159 1973 GUILLAUME COLOT SENIOR H 73 01:56:27 06:51 8.76
160 1837 JEROME WARNANT SENIOR H 74 01:56:34 06:51 8.75
161 1505 KEVIN HUART SENIOR H 75 01:56:47 06:52 8.73
162 1501 BERNARD BADENBERG VÉTÉRAN 2 13 01:56:48 06:52 8.73
163 1906 MATHIEU SIMONS VETERAN 3 5 01:57:00 06:53 8.72
164 1750 ADRIAN MASTRODICASA SENIOR H 76 01:57:16 06:54 8.70
165 1883 MICHAEL LAMBERT SENIOR H 77 01:57:18 06:54 8.70
166 1965 VINCENT MASSON VETERAN 1 48 01:57:55 06:56 8.65
167 1886 BERNARD PFLIPS VETERAN 1 49 01:58:04 06:57 8.64
168 1885 ANTHONY CHRISTIANO SENIOR H 78 01:58:05 06:57 8.64
169 1752 DAVID CRANINX SENIOR H 79 01:59:29 07:02 8.54
170 1936 SERGE MONAMI VÉTÉRAN 2 14 01:59:31 07:02 8.53
171 1753 QUENTIN GRANDJEAN SENIOR H 80 01:59:37 07:02 8.53
172 1857 GAEL SIMON SENIOR H 81 01:59:40 07:02 8.52
173 1963 BENOÎT WAUCOMONT VETERAN 1 50 01:59:46 07:03 8.52
174 1964 SANDRINE MARQUET AINÉE 1 10 01:59:46 07:03 8.52
175 1762 FLORENCE SOMJA SENIOR D 8 01:59:58 07:03 8.50
176 1887 FREDERIC PLUMIER VETERAN 1 51 02:00:26 07:05 8.47
177 1812 BENOIT QUERTEMONT VETERAN 1 52 02:00:47 07:06 8.44
178 1904 PARTRICK SALMON VÉTÉRAN 2 15 02:01:12 07:08 8.42
179 1767 JONATHAN MASSART SENIOR H 82 02:01:38 07:09 8.39
180 1509 QUENTIN BURLEON SENIOR H 83 02:01:54 07:10 8.37
181 1805 MARIETTE FRISEE AINÉE 3 3 02:02:04 07:11 8.36
182 1913 PHILIPPE KEIVLER VETERAN 3 6 02:02:09 07:11 8.35
183 1975 ANNE DELWAIDE AINÉE 3 4 02:02:27 07:12 8.33
184 1811 CHARLOTTE FRISEE SENIOR D 9 02:02:36 07:13 8.32
185 1873 DOMINIQUE PTAK VÉTÉRAN 2 16 02:02:38 07:13 8.32
186 1874 ANNICK PETERS AINÉE 2 6 02:02:38 07:13 8.32
187 1754 SUZANNE SIMONIS AINÉE 3 5 02:02:48 07:13 8.31
188 1995 CEDRIC DAUPHIN VETERAN 1 53 02:02:59 07:14 8.29
189 1790 DANIEL BLAISE VETERAN 1 54 02:03:28 07:16 8.26
190 1808 JEAN-LUC BLAISE VETERAN 1 55 02:03:28 07:16 8.26
191 1977 THIERRY FETTWEIS VÉTÉRAN 2 17 02:03:40 07:16 8.25
192 1989 LUCIENNE POLIS AINÉE 2 7 02:03:41 07:17 8.25
193 1536 LAURENCE PIERETTI AINÉE 1 11 02:04:03 07:18 8.22
194 1792 SANDRINE BRASSEUR AINÉE 1 12 02:04:11 07:18 8.21
195 1978 GAELLE FETTWEIS SENIOR D 10 02:04:29 07:19 8.19
196 1771 SÉBASTIEN WERY SENIOR H 84 02:05:09 07:22 8.15
197 1772 ROMAIN SNOECK SENIOR H 85 02:05:27 07:23 8.13
198 1844 FREDERIC LEX SENIOR H 86 02:05:27 07:23 8.13
199 1545 BERTRAND KAIRIS SENIOR H 87 02:05:47 07:24 8.11
200 1548 ALICE SALMON SENIOR D 11 02:05:47 07:24 8.11
201 1776 ADRIAN MASTRODICASA SENIOR H 88 02:05:57 07:25 8.10
202 1532 VINCENT PINSART VETERAN 1 56 02:05:58 07:25 8.10
203 1533 AUDREY WEGNET SENIOR D 12 02:05:58 07:25 8.10
204 1923 GILBERT CHARLIER VETERAN 1 57 02:06:05 07:25 8.09
205 1756 SÉBASTIEN BERTELS VETERAN 1 58 02:06:08 07:25 8.09
206 1774 ROLAND KUPPER SENIOR H 89 02:06:25 07:26 8.07
207 1900 DENIS VANDERLINDEN VETERAN 1 59 02:07:49 07:31 7.98
208 1529 BENOIT LEMAIRE SENIOR H 90 02:08:13 07:33 7.96
209 1849 STELIO HADJIDIMITRIOU VÉTÉRAN 2 18 02:08:13 07:33 7.96
210 1821 CATHY BOSCO AINÉE 1 13 02:09:09 07:36 7.90
211 1971 OLIVIER CHENOT VETERAN 1 60 02:09:22 07:37 7.88
212 1895 RUDY SCALCO VETERAN 1 61 02:09:31 07:37 7.88
213 1806 QUENTIN LAOUREUX SENIOR H 91 02:09:31 07:37 7.88
214 1538 MARTINE CRAHAY VETERAN 1 62 02:09:31 07:37 7.88
215 1925 RAPHAEL LOGNOUL VETERAN 1 63 02:10:05 07:39 7.84
216 1781 JEAN-DENIS VANESSE VÉTÉRAN 2 19 02:10:06 07:39 7.84
217 1924 NELE DECORTE SENIOR D 13 02:10:06 07:39 7.84
218 1798 PIERRE FRANCUS SENIOR H 92 02:11:46 07:45 7.74
219 1539 HENRI LAMBERT VETERAN 1 64 02:11:53 07:45 7.73
220 1956 MARINA HIERNAUX AINÉE 1 14 02:14:13 07:54 7.60
221 1838 GYULA NELHIEBEL VÉTÉRAN 2 20 02:14:46 07:56 7.57
222 1901 XAVIER DELNDOOZ SENIOR H 93 02:15:11 07:57 7.55
223 1976 ISABELLE CRUTZEN AINÉE 2 8 02:15:47 07:59 7.51
224 1757 DIDIER CHARLIER VÉTÉRAN 2 21 02:18:15 08:08 7.38
225 1791 MAGALI RIFFON AINÉE 1 15 02:18:41 08:09 7.35
226 1785 ARIELLE TANASE AINÉE 2 9 02:21:04 08:18 7.23
227 1759 LAURA DEMOULIN SENIOR D 14 02:22:12 08:22 7.17
228 1863 JULIE BECK SENIOR D 15 02:22:23 08:23 7.16
229 1515 SARAH THOMSIN SENIOR D 16 02:25:27 08:33 7.01
230 1517 MAUREEN MOERMAN SENIOR D 17 02:25:27 08:33 7.01
231 1506 JACK JACK AINÉE 3 6 02:35:30 09:09 6.56
232 1994 LOIC DUMOULIN ESPOIR H 1 02:35:30 09:09 6.56
233 1912 MICHELE KOVAC AINÉE 2 10 02:47:12 09:50 6.10